period_start,C,m1,H,J0,J1,J2,J3,J4,J5,JA,JB,JC,JD,JJ,JK,JN,#
2016-10-15 00:03:49,0.01,2.77,0.00,25.17,28.90,31.39,14.47,46.37,1029.32,2024.97,2488.97,2452.85,2751.01,599.70,598.83,50.51,0000 0000 0000 0000 000000
2016-10-15 00:08:50,0.03,2.78,0.00,25.17,28.90,31.39,14.51,46.38,1029.33,2024.97,2488.49,2452.37,2751.00,600.17,599.29,50.56,0000 0000 0000 0000 000000
2016-10-15 00:13:51,0.01,2.78,0.00,25.17,28.90,31.39,14.54,46.23,1029.32,2024.98,2488.03,2452.05,2751.00,600.00,599.10,50.61,0000 0000 0000 0000 000000
2016-10-15 00:18:52,0.01,2.78,0.00,25.18,28.90,31.39,14.55,46.36,1029.32,2024.98,2487.97,2452.02,2750.88,600.16,599.31,50.66,0000 0000 0000 0000 000000
2016-10-15 00:23:53,0.02,2.78,0.00,25.20,28.90,31.39,14.56,46.44,1029.31,2024.97,2487.48,2452.00,2750.20,599.98,598.95,50.71,0000 0000 0000 0000 000000
2016-10-15 00:28:54,0.00,2.78,0.00,25.20,28.90,31.39,14.57,46.46,1029.32,2024.95,2487.36,2451.98,2750.09,600.18,599.28,50.77,0000 0000 0000 0000 000000
2016-10-15 00:33:55,0.01,2.78,0.00,25.20,28.90,31.39,14.51,46.60,1029.32,2024.97,2487.00,2451.88,2749.96,599.97,599.03,50.82,0000 0000 0000 0000 000000
2016-10-15 00:38:57,0.31,2.79,0.00,25.22,28.90,31.39,14.50,46.41,1029.32,2024.96,2481.88,2449.30,2747.31,599.88,598.84,50.87,0000 0000 0000 0000 000000
2016-10-15 00:43:58,0.01,2.80,0.00,25.22,28.90,31.38,14.51,46.34,1029.32,2024.96,2481.18,2449.00,2747.00,600.02,599.06,50.92,0000 0000 0000 0000 000000
2016-10-15 00:48:59,0.00,2.80,0.00,25.23,28.90,31.38,14.49,46.42,1029.31,2024.98,2481.12,2448.99,2747.00,599.70,598.67,50.97,0000 0000 0000 0000 000000
2016-10-15 00:54:00,0.00,2.80,0.00,25.24,28.90,31.37,14.47,46.27,1029.31,2024.97,2481.05,2448.99,2747.00,599.86,598.85,51.02,0000 0000 0000 0000 000000
2016-10-15 00:59:02,-0.00,2.80,0.00,25.25,28.90,31.37,14.55,46.42,1029.31,2024.95,2481.01,2448.98,2747.00,599.80,598.84,51.07,0000 0000 0000 0000 000000
2016-10-15 01:04:03,0.00,2.80,0.00,25.25,28.90,31.37,14.50,46.36,1029.31,2024.97,2481.00,2448.96,2746.99,600.04,599.01,51.12,0000 0000 0000 0000 000000
2016-10-15 01:09:04,-0.00,2.80,0.00,25.27,28.89,31.37,14.51,46.44,1029.31,2024.94,2481.00,2448.92,2746.98,599.98,598.93,51.17,0000 0000 0000 0000 000000
2016-10-15 01:14:05,0.00,2.80,0.00,25.27,28.88,31.38,14.53,46.21,1029.31,2024.98,2480.99,2448.94,2746.98,600.30,599.18,51.22,0000 0000 0000 0000 000000
2016-10-15 01:19:07,0.00,2.80,0.00,25.28,28.88,31.38,14.50,46.23,1029.31,2024.95,2480.99,2448.87,2746.97,599.97,598.93,51.27,0000 0000 0000 0000 000000
2016-10-15 01:24:08,0.00,2.80,0.00,25.28,28.88,31.38,14.50,46.29,1029.31,2024.96,2480.98,2448.90,2746.97,599.68,598.55,51.32,0000 0000 0000 0000 000000
2016-10-15 01:29:10,-0.00,2.80,0.00,25.29,28.88,31.38,14.53,46.33,1029.31,2024.97,2480.99,2448.93,2746.98,600.24,599.12,51.37,0000 0000 0000 0000 000000
2016-10-15 01:34:11,0.00,2.80,0.00,25.30,28.88,31.38,14.37,46.38,1029.32,2024.99,2480.98,2448.85,2746.96,599.72,598.55,51.42,0000 0000 0000 0000 000000
2016-10-15 01:39:12,0.02,2.80,0.00,25.30,28.87,31.37,14.55,46.39,1029.32,2024.98,2480.93,2448.53,2746.74,599.95,598.87,51.47,0000 0000 0000 0000 000000
2016-10-15 01:44:13,0.00,2.80,0.00,25.32,28.88,31.36,14.51,46.12,1029.32,2024.97,2480.88,2448.39,2746.63,599.76,598.56,51.52,0000 0000 0000 0000 000000
2016-10-15 01:49:14,0.01,2.80,0.00,25.33,28.88,31.37,14.54,46.41,1029.33,2024.97,2480.74,2448.27,2746.46,600.17,599.13,51.57,0000 0000 0000 0000 000000
2016-10-15 01:54:15,0.01,2.80,0.00,25.33,28.89,31.37,14.57,46.52,1029.32,2024.95,2480.56,2448.13,2746.25,600.01,598.78,51.62,0000 0000 0000 0000 000000
2016-10-15 01:59:16,0.02,2.80,0.00,25.35,28.89,31.37,14.43,46.20,1029.33,2024.96,2480.09,2448.03,2746.04,599.65,598.33,51.68,0000 0000 0000 0000 000000
2016-10-15 02:04:17,-0.00,2.80,0.00,25.36,28.90,31.38,14.50,46.21,1029.33,2024.97,2480.02,2448.03,2746.01,599.93,598.51,51.73,0000 0000 0000 0000 000000
2016-10-15 02:09:19,0.00,2.80,0.00,25.36,28.90,31.38,14.49,46.15,1029.32,2024.97,2480.01,2448.02,2746.00,600.16,598.61,51.78,0000 0000 0000 0000 000000
2016-10-15 02:14:20,0.00,2.80,0.00,25.36,28.90,31.38,14.48,46.32,1029.32,2024.98,2480.01,2448.01,2746.00,599.92,598.63,51.83,0000 0000 0000 0000 000000
2016-10-15 02:19:21,0.00,2.80,0.00,25.38,28.90,31.38,14.56,46.60,1029.32,2024.97,2480.00,2448.00,2746.00,600.14,598.82,51.88,0000 0000 0000 0000 000000
2016-10-15 02:24:22,0.00,2.80,0.00,25.40,28.90,31.40,14.54,46.28,1029.31,2024.98,2480.00,2448.00,2745.99,600.14,598.82,51.93,0000 0000 0000 0000 000000
2016-10-15 02:29:23,0.00,2.80,0.00,25.43,28.90,31.39,14.45,46.25,1029.31,2024.99,2480.00,2448.00,2745.99,599.93,598.49,51.98,0000 0000 0000 0000 000000
2016-10-15 02:34:24,-0.00,2.80,0.00,25.45,28.92,31.38,14.49,46.27,1029.31,2024.99,2480.00,2448.00,2745.98,599.92,598.45,52.03,0000 0000 0000 0000 000000
2016-10-15 02:39:25,0.00,2.80,0.00,25.47,28.92,31.40,14.50,46.23,1029.32,2024.97,2480.00,2448.00,2745.99,599.85,598.44,52.08,0000 0000 0000 0000 000000
2016-10-15 02:44:27,0.00,2.80,0.00,25.48,28.93,31.40,14.50,46.15,1029.32,2024.97,2480.00,2448.00,2745.97,599.78,598.37,52.13,0000 0000 0000 0000 000000
2016-10-15 02:49:28,0.00,2.80,0.00,25.51,28.95,31.42,14.49,46.28,1029.32,2024.96,2479.99,2448.00,2745.96,599.99,598.40,52.18,0000 0000 0000 0000 000000
2016-10-15 02:54:29,-0.00,2.80,0.00,25.52,28.95,31.43,14.40,46.22,1029.34,2024.89,2479.98,2447.98,2745.86,599.59,598.07,52.23,0000 0000 0000 0000 000000
2016-10-15 02:59:30,-0.00,2.80,0.00,25.53,28.96,31.42,14.43,46.17,1029.33,2024.80,2479.95,2447.94,2745.44,599.88,598.30,52.28,0000 0000 0000 0000 000000
2016-10-15 03:04:32,0.00,2.80,0.00,25.54,28.97,31.42,14.50,46.36,1029.32,2024.66,2479.88,2447.81,2745.18,599.97,598.17,52.33,0000 0000 0000 0000 000000
2016-10-15 03:09:33,-0.01,2.80,0.00,25.56,28.98,31.42,14.57,46.33,1029.32,2024.57,2479.86,2447.66,2745.11,600.09,598.50,52.38,0000 0000 0000 0000 000000
2016-10-15 03:14:34,0.02,2.80,0.00,25.59,29.00,31.44,14.49,46.23,1029.35,2024.20,2479.33,2447.15,2745.01,599.96,598.23,52.43,0000 0000 0000 0000 000000
2016-10-15 03:19:36,0.08,2.80,0.00,25.61,29.00,31.46,14.44,46.28,1029.36,2024.16,2477.90,2446.42,2744.25,599.78,597.94,52.48,0000 0000 0000 0000 000000
2016-10-15 03:24:37,0.11,2.81,0.00,25.63,29.02,31.46,14.51,46.22,1029.36,2024.04,2475.97,2445.24,2742.92,599.96,598.18,52.53,0000 0000 0000 0000 000000
2016-10-15 03:29:38,0.12,2.81,0.00,25.65,29.02,31.47,14.48,46.25,1029.37,2024.02,2473.66,2443.91,2741.48,599.71,597.82,52.58,0000 0000 0000 0000 000000
2016-10-15 03:34:40,0.16,2.82,0.00,25.67,29.03,31.48,14.52,46.20,1029.33,2024.01,2471.44,2442.51,2739.99,600.17,598.26,52.64,0000 0000 0000 0000 000000
2016-10-15 03:39:41,0.25,2.84,0.00,25.69,29.05,31.49,14.54,46.23,1029.33,2024.01,2467.07,2440.03,2737.23,600.10,598.10,52.69,0000 0000 0000 0000 000000
2016-10-15 03:44:42,0.12,2.84,0.00,25.70,29.05,31.51,14.47,46.22,1029.35,2024.00,2465.07,2438.71,2735.71,600.01,597.96,52.74,0000 0000 0000 0000 000000
2016-10-15 03:49:43,0.19,2.85,0.00,25.72,29.06,31.52,14.49,46.14,1029.37,2024.00,2461.78,2436.91,2733.61,600.17,598.19,52.79,0000 0000 0000 0000 000000
2016-10-15 03:54:44,0.07,2.86,0.00,25.73,29.07,31.55,14.39,46.13,1029.41,2024.00,2460.26,2436.00,2732.62,599.75,597.78,52.84,0000 0000 0000 0000 000000
2016-10-15 03:59:46,0.07,2.86,0.00,25.74,29.07,31.54,14.46,46.16,1029.40,2024.00,2459.09,2435.16,2731.85,599.98,597.89,52.89,0000 0000 0000 0000 000000
2016-10-15 04:04:47,0.06,2.86,0.00,25.76,29.09,31.54,14.40,46.11,1029.43,2024.00,2458.05,2434.73,2731.05,599.80,597.86,52.94,0000 0000 0000 0000 000000
2016-10-15 04:09:49,0.11,2.87,0.00,25.77,29.10,31.57,14.43,46.21,1029.35,2024.00,2456.60,2433.69,2730.09,599.82,597.73,52.99,0000 0000 0000 0000 000000
2016-10-15 04:14:50,0.28,2.88,0.00,25.77,29.10,31.59,14.47,46.34,1029.32,2023.99,2452.85,2431.26,2727.32,599.55,597.44,53.04,0000 0000 0000 0000 000000
2016-10-15 04:19:51,0.23,2.89,0.00,25.79,29.12,31.61,14.42,46.25,1029.36,2023.99,2449.14,2428.69,2724.50,599.80,597.70,53.09,0000 0000 0000 0000 000000
2016-10-15 04:24:52,0.10,2.90,0.00,25.80,29.12,31.62,14.48,46.22,1029.37,2023.98,2447.21,2427.34,2723.00,600.08,597.70,53.14,0000 0000 0000 0000 000000
2016-10-15 04:29:53,0.10,2.90,0.00,25.82,29.14,31.63,14.44,46.17,1029.38,2023.97,2445.71,2426.54,2721.86,599.94,597.81,53.19,0000 0000 0000 0000 000000
2016-10-15 04:34:55,0.22,2.91,0.00,25.82,29.15,31.64,14.46,46.15,1029.39,2023.98,2442.81,2424.54,2719.81,600.07,597.83,53.24,0000 0000 0000 0000 000000
2016-10-15 04:39:56,0.08,2.92,0.00,25.83,29.16,31.64,14.46,46.40,1029.39,2023.95,2440.98,2423.06,2718.26,600.32,598.12,53.29,0000 0000 0000 0000 000000
2016-10-15 04:44:58,0.07,2.93,0.00,25.84,29.17,31.66,14.43,46.21,1029.45,2023.83,2439.78,2422.28,2717.42,600.05,597.87,53.34,0000 0000 0000 0000 000000
2016-10-15 04:49:59,0.06,2.93,0.00,25.85,29.19,31.68,14.52,46.13,1029.48,2023.51,2438.46,2421.30,2716.39,600.18,598.01,53.39,0000 0000 0000 0000 000000
2016-10-15 04:55:00,0.07,2.93,0.00,25.86,29.20,31.68,14.42,46.08,1029.49,2023.25,2437.15,2420.42,2715.42,600.06,597.73,53.44,0000 0000 0000 0000 000000
2016-10-15 05:00:01,0.04,2.93,0.00,25.87,29.21,31.71,14.52,46.13,1029.42,2023.12,2436.05,2419.84,2714.69,600.18,598.00,53.50,0000 0000 0000 0000 000000
2016-10-15 05:05:02,0.05,2.94,0.00,25.87,29.22,31.70,14.41,46.10,1029.41,2023.08,2435.53,2419.13,2714.05,600.09,597.79,53.55,0000 0000 0000 0000 000000
2016-10-15 05:10:04,0.03,2.94,0.00,25.87,29.22,31.71,14.46,46.18,1029.38,2023.03,2434.71,2418.89,2713.52,599.91,597.71,53.60,0000 0000 0000 0000 000000
2016-10-15 05:15:06,0.04,2.94,0.00,25.87,29.25,31.72,14.47,46.16,1029.38,2023.00,2434.01,2418.13,2713.01,599.99,597.72,53.65,0000 0000 0000 0000 000000
2016-10-15 05:20:07,0.03,2.94,0.00,25.88,29.25,31.75,14.39,46.14,1029.42,2023.01,2433.51,2418.00,2712.77,599.83,597.55,53.70,0000 0000 0000 0000 000000
2016-10-15 05:25:08,0.08,2.95,0.00,25.90,29.26,31.76,14.47,46.28,1029.39,2023.01,2432.37,2417.40,2711.78,600.16,597.83,53.75,0000 0000 0000 0000 000000
2016-10-15 05:30:10,0.14,2.95,0.00,25.90,29.27,31.76,14.45,46.02,1029.37,2023.01,2430.42,2415.93,2710.32,599.84,597.44,53.80,0000 0000 0000 0000 000000
2016-10-15 05:35:11,0.15,2.96,0.00,25.90,29.27,31.78,14.47,46.14,1029.42,2023.00,2428.23,2414.59,2708.68,599.63,597.31,53.85,0000 0000 0000 0000 000000
2016-10-15 05:40:12,0.11,2.97,0.00,25.90,29.30,31.78,14.56,46.19,1029.40,2023.00,2426.35,2413.29,2707.25,599.85,597.57,53.90,0000 0000 0000 0000 000000
2016-10-15 05:45:13,0.09,2.97,0.00,25.92,29.30,31.79,14.50,46.17,1029.35,2023.00,2424.95,2412.46,2706.26,599.72,597.34,53.95,0000 0000 0000 0000 000000
2016-10-15 05:50:15,0.09,2.97,0.00,25.93,29.30,31.81,14.44,46.16,1029.37,2023.00,2423.63,2411.63,2705.45,599.74,597.37,54.00,0000 0000 0000 0000 000000
2016-10-15 05:55:16,0.07,2.98,0.00,25.93,29.32,31.80,14.51,46.13,1029.46,2023.00,2422.32,2410.78,2704.61,600.17,597.88,54.05,0000 0000 0000 0000 000000
2016-10-15 06:00:17,0.11,2.98,0.00,25.93,29.32,31.79,14.49,46.23,1029.54,2023.00,2420.72,2409.75,2703.46,600.37,598.05,54.10,0000 0000 0000 0000 000000
2016-10-15 06:05:18,0.10,2.99,0.00,25.93,29.33,31.82,14.45,46.12,1029.63,2022.99,2419.16,2408.69,2702.31,599.76,597.51,54.15,0000 0000 0000 0000 000000
2016-10-15 06:10:20,0.05,2.99,0.00,25.95,29.35,31.83,14.48,46.09,1029.59,2022.99,2417.92,2407.98,2701.61,600.11,597.87,54.20,0000 0000 0000 0000 000000
2016-10-15 06:15:21,0.13,3.00,0.00,25.96,29.35,31.84,14.47,46.24,1029.56,2022.99,2416.25,2406.87,2700.33,600.22,597.90,54.25,0000 0000 0000 0000 000000
2016-10-15 06:20:22,0.10,3.01,0.00,25.96,29.35,31.85,14.48,46.28,1029.61,2022.97,2414.46,2405.77,2699.02,599.97,597.71,54.30,0000 0000 0000 0000 000000
2016-10-15 06:25:24,0.09,3.01,0.00,25.97,29.36,31.85,14.46,46.17,1029.70,2022.98,2412.91,2404.85,2697.94,600.00,597.71,54.35,0000 0000 0000 0000 000000
2016-10-15 06:30:25,0.15,3.02,0.00,25.97,29.37,31.85,14.47,46.14,1029.69,2022.97,2411.02,2403.61,2696.64,600.25,598.01,54.40,0000 0000 0000 0000 000000
2016-10-15 06:35:26,0.12,3.02,0.00,25.97,29.37,31.87,14.48,46.14,1029.69,2022.97,2408.89,2402.35,2695.20,600.00,597.64,54.45,0000 0000 0000 0000 000000
2016-10-15 06:40:27,0.12,3.03,0.00,25.96,29.37,31.86,14.46,46.11,1029.76,2022.95,2406.83,2401.17,2693.74,600.20,597.90,54.51,0000 0000 0000 0000 000000
2016-10-15 06:45:29,0.12,3.04,0.00,25.97,29.38,31.89,14.46,45.97,1029.79,2022.90,2404.71,2399.94,2692.39,600.09,597.85,54.56,0000 0000 0000 0000 000000
2016-10-15 06:50:30,0.08,3.04,0.00,25.98,29.40,31.88,14.51,46.10,1029.79,2022.96,2403.20,2399.04,2691.19,599.77,597.47,54.61,0000 0000 0000 0000 000000
2016-10-15 06:55:31,0.01,3.04,0.00,25.98,29.40,31.87,14.41,46.16,1029.79,2022.97,2402.81,2398.90,2690.99,599.51,597.27,54.66,0000 0000 0000 0000 000000
2016-10-15 07:00:32,-0.01,3.04,0.00,25.98,29.40,31.88,14.46,46.10,1029.79,2022.96,2402.85,2398.82,2690.98,600.10,597.83,54.71,0000 0000 0000 0000 000000
2016-10-15 07:05:34,0.02,3.04,0.00,25.97,29.40,31.91,14.45,46.13,1029.79,2022.97,2402.71,2398.63,2690.98,599.64,597.40,54.76,0000 0000 0000 0000 000000
2016-10-15 07:10:35,0.03,3.05,0.00,25.95,29.40,31.90,14.42,46.17,1029.79,2022.93,2402.09,2398.11,2690.67,599.76,597.50,54.81,0000 0000 0000 0000 000000
2016-10-15 07:15:36,0.01,3.05,0.00,25.91,29.42,31.91,14.48,46.23,1029.76,2022.90,2402.01,2398.03,2690.25,599.75,597.71,54.86,0000 0000 0000 0000 000000
2016-10-15 07:20:37,0.00,3.05,0.00,25.89,29.42,31.93,14.49,46.21,1029.78,2022.92,2402.01,2398.02,2690.16,599.79,597.71,54.91,0000 0000 0000 0000 000000
2016-10-15 07:25:39,-0.01,3.05,0.00,25.87,29.42,31.94,14.44,46.16,1029.80,2022.79,2402.00,2398.00,2690.02,599.81,597.93,54.96,0000 0000 0000 0000 000000
2016-10-15 07:30:40,-0.00,3.05,0.00,25.85,29.42,31.93,14.60,46.26,1029.80,2022.85,2402.00,2398.00,2690.00,600.32,598.18,55.01,0000 0000 0000 0000 000000
2016-10-15 07:35:41,-0.04,3.05,0.00,25.81,29.42,31.93,14.42,46.17,1029.80,2022.43,2401.99,2397.98,2690.00,599.94,597.97,55.06,0000 0000 0000 0000 000000
2016-10-15 07:40:42,0.01,3.05,0.00,25.79,29.42,31.93,14.41,46.05,1029.80,2022.25,2401.58,2397.71,2689.98,599.80,597.92,55.11,0000 0000 0000 0000 000000
2016-10-15 07:45:44,0.04,3.05,0.00,25.79,29.42,31.93,14.52,46.24,1029.80,2022.23,2401.02,2397.06,2689.59,600.22,598.28,55.16,0000 0000 0000 0000 000000
2016-10-15 07:50:45,0.01,3.05,0.00,25.77,29.42,31.95,14.52,46.18,1029.80,2022.17,2400.87,2397.00,2689.03,600.32,598.41,55.21,0000 0000 0000 0000 000000
2016-10-15 07:55:46,0.01,3.05,0.00,25.75,29.42,31.93,14.49,46.13,1029.81,2022.20,2400.14,2396.94,2689.00,600.23,598.47,55.26,0000 0000 0000 0000 000000
2016-10-15 08:00:47,0.04,3.05,0.00,25.75,29.42,31.95,14.46,46.27,1029.82,2022.09,2399.97,2396.26,2688.75,600.22,598.41,55.31,0000 0000 0000 0000 000000
2016-10-15 08:05:48,0.03,3.05,0.00,25.72,29.42,31.93,14.49,46.48,1029.82,2022.07,2399.34,2396.00,2688.06,599.94,598.17,55.36,0000 0000 0000 0000 000000
2016-10-15 08:10:50,0.01,3.05,0.00,25.71,29.42,31.94,14.46,46.43,1029.82,2022.10,2398.97,2395.94,2687.99,599.96,598.14,55.41,0000 0000 0000 0000 000000
2016-10-15 08:15:51,0.06,3.06,0.00,25.69,29.42,31.94,14.43,46.48,1029.82,2022.08,2398.32,2395.41,2687.65,599.68,598.14,55.47,0000 0000 0000 0000 000000
2016-10-15 08:20:52,0.03,3.06,0.00,25.67,29.40,31.93,14.55,46.43,1029.82,2022.20,2398.01,2395.03,2687.09,600.06,598.42,55.52,0000 0000 0000 0000 000000
2016-10-15 08:25:53,0.01,3.06,0.00,25.67,29.40,31.92,14.39,46.33,1029.82,2022.20,2398.00,2395.00,2687.00,599.85,598.30,55.57,0000 0000 0000 0000 000000
2016-10-15 08:30:54,-0.00,3.06,0.00,25.67,29.40,31.93,14.51,46.37,1029.81,2022.13,2397.99,2395.00,2687.02,599.77,598.14,55.62,0000 0000 0000 0000 000000
2016-10-15 08:35:55,-0.00,3.06,0.00,25.67,29.40,31.90,14.52,46.46,1029.81,2022.11,2397.99,2394.99,2687.00,599.57,597.99,55.67,0000 0000 0000 0000 000000
2016-10-15 08:40:57,0.02,3.06,0.00,25.65,29.39,31.87,14.54,46.42,1029.84,2022.23,2397.97,2394.99,2687.01,600.41,598.87,55.72,0000 0000 0000 0000 000000
2016-10-15 08:45:58,0.00,3.06,0.00,25.63,29.37,31.90,14.45,46.31,1029.85,2022.29,2397.67,2394.98,2687.00,599.75,598.35,55.77,0000 0000 0000 0000 000000
2016-10-15 08:50:59,0.03,3.06,0.00,25.63,29.37,31.88,14.46,46.25,1029.83,2022.46,2397.19,2394.98,2687.00,599.95,598.30,55.82,0000 0000 0000 0000 000000
2016-10-15 08:56:00,-0.02,3.06,0.00,25.60,29.36,31.87,14.52,46.31,1029.82,2022.26,2397.27,2394.90,2687.00,599.88,598.44,55.87,0000 0000 0000 0000 000000
2016-10-15 09:01:01,0.01,3.06,0.00,25.57,29.35,31.87,14.54,46.38,1029.82,2022.26,2397.26,2394.81,2686.99,600.06,598.51,55.92,0000 0000 0000 0000 000000
2016-10-15 09:06:02,0.05,3.06,0.00,25.56,29.35,31.87,14.54,46.43,1029.82,2022.53,2397.05,2394.71,2686.99,599.79,598.37,55.97,0000 0000 0000 0000 000000
2016-10-15 09:11:03,-0.00,3.06,0.00,25.55,29.32,31.86,14.48,46.25,1029.81,2022.53,2397.01,2394.38,2686.96,599.99,598.57,56.02,0000 0000 0000 0000 000000
2016-10-15 09:16:05,0.01,3.06,0.00,25.54,29.32,31.88,14.51,46.40,1029.81,2022.55,2397.00,2394.11,2686.93,600.10,598.65,56.07,0000 0000 0000 0000 000000
2016-10-15 09:21:06,0.03,3.06,0.00,25.52,29.31,31.86,14.49,46.62,1029.81,2022.63,2397.00,2394.07,2686.73,599.91,598.62,56.12,0000 0000 0000 0000 000000
2016-10-15 09:26:07,0.04,3.07,0.00,25.51,29.30,31.87,14.57,46.55,1029.80,2022.82,2396.92,2394.02,2686.16,600.39,599.04,56.17,0000 0000 0000 0000 000000
2016-10-15 09:31:08,0.00,3.07,0.00,25.50,29.29,31.85,14.47,46.47,1029.80,2022.91,2396.73,2394.02,2686.05,599.85,598.59,56.22,0000 0000 0000 0000 000000
2016-10-15 09:36:10,0.02,3.07,0.00,25.47,29.27,31.85,14.47,46.49,1029.80,2022.93,2396.42,2394.00,2686.01,600.06,598.77,56.27,0000 0000 0000 0000 000000
2016-10-15 09:41:10,0.00,3.07,0.00,25.47,29.27,31.84,14.55,46.42,1029.80,2022.97,2396.08,2394.00,2686.00,600.07,598.83,56.32,0000 0000 0000 0000 000000
2016-10-15 09:46:12,0.00,3.07,0.00,25.45,29.25,31.81,14.50,46.46,1029.80,2022.97,2396.01,2394.00,2686.00,600.06,598.92,56.37,0000 0000 0000 0000 000000
2016-10-15 09:51:13,0.01,3.07,0.00,25.44,29.25,31.79,14.58,46.52,1029.80,2022.99,2395.97,2393.99,2685.95,600.35,599.22,56.42,0000 0000 0000 0000 000000
2016-10-15 09:56:15,0.04,3.07,0.00,25.42,29.23,31.79,14.54,46.45,1029.80,2022.98,2395.48,2393.94,2685.39,600.21,599.04,56.48,0000 0000 0000 0000 000000
2016-10-15 10:01:16,0.02,3.07,0.00,25.43,29.22,31.76,14.56,46.45,1029.80,2022.99,2395.04,2393.59,2685.02,599.95,598.95,56.53,0000 0000 0000 0000 000000
2016-10-15 10:06:17,0.01,3.07,0.00,25.42,29.21,31.73,14.47,46.62,1029.81,2022.99,2395.01,2393.23,2685.02,599.87,598.78,56.58,0000 0000 0000 0000 000000
2016-10-15 10:11:18,0.00,3.07,0.00,25.41,29.20,31.74,14.48,46.52,1029.80,2022.99,2395.00,2393.03,2685.00,599.72,598.62,56.63,0000 0000 0000 0000 000000
2016-10-15 10:16:20,0.00,3.07,0.00,25.39,29.19,31.72,14.52,46.52,1029.80,2023.00,2394.91,2393.00,2684.98,600.23,599.18,56.68,0000 0000 0000 0000 000000
2016-10-15 10:21:21,0.02,3.07,0.00,25.39,29.17,31.70,14.54,46.52,1029.80,2023.00,2394.37,2393.00,2684.75,600.18,599.16,56.73,0000 0000 0000 0000 000000
2016-10-15 10:26:22,0.02,3.08,0.00,25.40,29.17,31.65,14.54,46.55,1029.80,2023.00,2394.01,2392.97,2684.08,599.87,598.78,56.78,0000 0000 0000 0000 000000
2016-10-15 10:31:24,0.00,3.08,0.00,25.40,29.15,31.68,14.47,46.48,1029.80,2023.02,2393.98,2392.90,2684.01,599.67,598.57,56.83,0000 0000 0000 0000 000000
2016-10-15 10:36:25,0.03,3.08,0.00,25.37,29.15,31.67,14.56,46.55,1029.81,2023.03,2393.76,2392.57,2683.99,600.01,599.07,56.88,0000 0000 0000 0000 000000
2016-10-15 10:41:26,0.06,3.08,0.00,25.37,29.12,31.68,14.54,46.58,1029.80,2023.03,2392.72,2392.06,2683.57,599.95,599.12,56.93,0000 0000 0000 0000 000000
2016-10-15 10:46:27,0.02,3.08,0.00,25.35,29.12,31.64,14.55,46.62,1029.80,2023.05,2392.01,2391.93,2683.01,600.17,599.18,56.98,0000 0000 0000 0000 000000
2016-10-15 10:51:28,0.02,3.08,0.00,25.34,29.10,31.64,14.54,46.50,1029.80,2023.18,2392.00,2391.79,2683.00,600.20,599.27,57.03,0000 0000 0000 0000 000000
2016-10-15 10:56:29,0.06,3.08,0.00,25.31,29.10,31.65,14.45,46.52,1029.80,2023.20,2391.58,2391.16,2682.61,599.80,598.98,57.08,0000 0000 0000 0000 000000
2016-10-15 11:01:31,0.02,3.09,0.00,25.30,29.09,31.63,14.47,46.52,1029.78,2023.31,2391.29,2391.03,2682.34,599.72,598.88,57.13,0000 0000 0000 0000 000000
2016-10-15 11:06:32,0.01,3.09,0.00,25.30,29.07,31.63,14.57,46.62,1029.72,2023.33,2391.07,2391.00,2682.07,600.46,599.51,57.18,0000 0000 0000 0000 000000
2016-10-15 11:11:33,0.01,3.09,0.00,25.29,29.07,31.61,14.47,46.58,1029.72,2023.42,2391.04,2391.00,2682.05,599.77,598.87,57.23,0000 0000 0000 0000 000000
2016-10-15 11:16:34,0.05,3.09,0.00,25.27,29.05,31.64,14.50,46.47,1029.74,2023.83,2391.01,2391.00,2682.01,600.22,599.44,57.28,0000 0000 0000 0000 000000
2016-10-15 11:21:36,0.01,3.09,0.00,25.26,29.05,31.60,14.54,46.49,1029.61,2023.91,2390.81,2390.99,2681.95,600.21,599.25,57.33,0000 0000 0000 0000 000000
2016-10-15 11:26:37,0.05,3.09,0.00,25.23,29.03,31.59,14.57,46.54,1029.50,2023.98,2390.04,2390.84,2681.14,600.00,599.07,57.38,0000 0000 0000 0000 000000
2016-10-15 11:31:38,0.02,3.09,0.00,25.22,29.02,31.52,14.45,46.40,1029.42,2023.99,2389.97,2390.32,2681.00,599.76,598.74,57.43,0000 0000 0000 0000 000000
2016-10-15 11:36:40,0.00,3.10,0.00,25.22,29.01,31.48,14.49,46.37,1029.35,2023.99,2389.95,2390.09,2681.00,599.99,598.99,57.49,0000 0000 0000 0000 000000
2016-10-15 11:41:41,0.00,3.10,0.00,25.20,29.00,31.49,14.50,46.44,1029.34,2023.99,2389.94,2390.03,2681.00,599.99,599.04,57.54,0000 0000 0000 0000 000000
2016-10-15 11:46:42,0.01,3.10,0.00,25.19,29.00,31.51,14.50,46.48,1029.35,2023.99,2389.52,2390.00,2680.98,599.89,599.10,57.59,0000 0000 0000 0000 000000
2016-10-15 11:51:43,0.00,3.10,0.00,25.18,28.99,31.46,14.55,46.40,1029.32,2023.99,2389.10,2390.00,2680.92,599.96,599.04,57.64,0000 0000 0000 0000 000000
2016-10-15 11:56:45,0.01,3.10,0.00,25.18,28.97,31.46,14.47,46.20,1029.31,2023.99,2389.02,2389.99,2680.56,600.13,599.20,57.69,0000 0000 0000 0000 000000
2016-10-15 12:01:46,0.00,3.10,0.00,25.17,28.97,31.50,14.55,46.48,1029.31,2023.99,2389.00,2389.97,2680.24,600.04,599.06,57.74,0000 0000 0000 0000 000000
2016-10-15 12:06:47,0.00,3.10,0.00,25.16,28.96,31.47,14.51,46.33,1029.31,2023.99,2389.00,2389.90,2680.07,599.59,598.69,57.79,0000 0000 0000 0000 000000
2016-10-15 12:11:48,0.01,3.10,0.00,25.16,28.95,31.43,14.51,46.40,1029.31,2023.99,2389.00,2389.62,2680.04,600.24,599.36,57.84,0000 0000 0000 0000 000000
2016-10-15 12:16:50,0.01,3.10,0.00,25.16,28.95,31.44,14.49,46.38,1029.31,2023.99,2388.98,2389.29,2680.02,599.87,598.93,57.89,0000 0000 0000 0000 000000
2016-10-15 12:21:51,0.01,3.10,0.00,25.15,28.94,31.44,14.49,46.33,1029.31,2023.99,2388.70,2389.06,2680.00,599.72,598.96,57.94,0000 0000 0000 0000 000000
2016-10-15 12:26:53,0.01,3.10,0.00,25.15,28.92,31.41,14.50,46.38,1029.31,2023.99,2388.10,2389.01,2679.99,600.33,599.47,57.99,0000 0000 0000 0000 000000
2016-10-15 12:31:54,0.00,3.10,0.00,25.14,28.92,31.44,14.58,46.38,1029.30,2024.00,2388.01,2389.00,2679.83,600.02,599.16,58.04,0000 0000 0000 0000 000000
2016-10-15 12:36:55,0.01,3.10,0.00,25.12,28.92,31.42,14.49,46.23,1029.30,2024.02,2387.99,2389.00,2679.13,600.13,599.29,58.09,0000 0000 0000 0000 000000
2016-10-15 12:41:56,0.00,3.10,0.00,25.12,28.92,31.43,14.56,46.29,1029.29,2024.03,2387.82,2388.96,2679.00,599.79,599.01,58.14,0000 0000 0000 0000 000000
2016-10-15 12:46:58,0.02,3.10,0.00,25.12,28.91,31.43,14.58,46.47,1029.21,2024.02,2387.32,2388.80,2678.99,600.16,599.38,58.19,0000 0000 0000 0000 000000
2016-10-15 12:51:59,0.02,3.11,0.00,25.10,28.90,31.42,14.52,46.32,1029.13,2024.03,2387.01,2388.18,2678.95,599.68,598.86,58.24,0000 0000 0000 0000 000000
2016-10-15 12:57:00,0.02,3.11,0.00,25.09,28.90,31.43,14.52,46.36,1029.03,2024.10,2386.99,2388.03,2678.57,599.98,598.86,58.29,0000 0000 0000 0000 000000